Weather reports worldwide

Advertisment
Sevilla/San Pablo, Spain (8391): temperature & dewpoint: 16.06.2018 15:00:00 - 22.06.2018 15:00:00 (CEST)Sevilla/San Pablo, Spain (8391): wind speed: 16.06.2018 15:00:00 - 22.06.2018 15:00:00 (CEST)Sevilla/San Pablo, Spain (8391): wind direction: 16.06.2018 15:00:00 - 22.06.2018 15:00:00 (CEST)Sevilla/San Pablo, Spain (8391): reduced air pressure: 16.06.2018 15:00:00 - 22.06.2018 15:00:00 (CEST)Sevilla/San Pablo, Spain (8391): visibility: 16.06.2018 15:00:00 - 22.06.2018 15:00:00 (CEST)
Date & Time tt [°C] td [°C] ff [km/h] ff [kn] dd ppp [hPa] vv [km]
22.06.2018 15:00:00 - - - - - - -
22.06.2018 14:00:00 31,6 12,1 8 4 SSW 1015,0 30
22.06.2018 13:00:00 30,4 12,5 5 3 ENE 1015,8 -
22.06.2018 12:00:00 28,7 13,0 8 4 ESE 1016,6 -
22.06.2018 11:00:00 26,6 13,8 4 2 WSW 1016,9 30
22.06.2018 10:00:00 24,9 15,0 5 3 SSW 1016,8 -
22.06.2018 09:00:00 22,4 16,4 11 6 SSW 1016,7 -
22.06.2018 08:00:00 21,3 14,9 5 3 SSE 1016,3 25
22.06.2018 07:00:00 20,1 14,8 5 3 SE 1016,2 -
22.06.2018 06:00:00 21,3 14,9 5 3 ENE 1016,2 -
22.06.2018 05:00:00 21,7 14,8 0 0 N 1016,4 30
22.06.2018 04:00:00 22,6 14,7 11 6 W 1016,8 -
22.06.2018 03:00:00 23,0 14,9 8 4 NNW 1017,2 -
22.06.2018 02:00:00 23,0 14,8 9 5 W 1017,3 30
22.06.2018 01:00:00 23,0 14,8 11 6 W 1017,1 -
22.06.2018 00:00:00 23,7 15,5 16 9 W 1016,8 -
21.06.2018 23:00:00 24,7 15,6 18 10 WNW 1016,2 30
21.06.2018 22:00:00 26,4 14,5 24 13 W 1015,2 -
21.06.2018 21:00:00 28,4 13,9 26 14 WSW 1014,5 -
21.06.2018 20:00:00 30,2 15,1 28 15 SW 1013,8 30
21.06.2018 19:00:00 33,3 14,8 18 10 SW 1013,5 -
21.06.2018 18:00:00 34,2 11,2 8 4 W 1014,0 -
21.06.2018 17:00:00 33,8 11,0 4 2 ENE 1014,3 30
21.06.2018 16:00:00 32,4 11,7 9 5 W 1014,9 -
21.06.2018 15:00:00 31,3 11,0 8 4 N 1015,5 -
21.06.2018 14:00:00 30,3 12,3 11 6 W 1015,9 30
21.06.2018 13:00:00 29,2 13,3 5 3 N 1016,4 -
21.06.2018 12:00:00 27,6 13,8 5 3 ENE 1016,7 -
21.06.2018 11:00:00 25,1 15,5 5 3 WNW 1016,2 25
21.06.2018 10:00:00 22,6 17,9 8 4 SSW 1016,5 -
21.06.2018 09:00:00 21,5 17,5 5 3 E 1015,6 -
21.06.2018 08:00:00 20,7 18,1 18 10 NNE 1014,9 25
21.06.2018 07:00:00 20,8 17,7 4 2 W 1016,4 -
21.06.2018 06:00:00 20,8 18,1 9 5 SSE 1016,1 -
21.06.2018 05:00:00 21,1 18,3 8 4 ENE 1015,4 30
21.06.2018 04:00:00 21,2 17,3 5 3 SSW 1016,0 -
21.06.2018 03:00:00 21,6 16,3 8 4 SW 1016,6 -
21.06.2018 02:00:00 21,6 16,3 15 8 SW 1017,1 30
21.06.2018 01:00:00 22,1 16,1 15 8 SW 1016,2 -
21.06.2018 00:00:00 23,2 15,8 15 8 SW 1015,9 -
20.06.2018 23:00:00 24,4 16,3 18 10 SW 1015,1 30
20.06.2018 22:00:00 25,1 16,5 18 10 SSW 1014,0 -
20.06.2018 21:00:00 27,4 16,7 18 10 SSW 1013,5 -
20.06.2018 20:00:00 29,4 16,6 22 12 SW 1013,2 30
20.06.2018 19:00:00 32,8 14,4 22 12 SW 1013,0 -
20.06.2018 18:00:00 35,1 10,5 9 5 WSW 1013,3 -
20.06.2018 17:00:00 35,0 9,8 11 6 W 1013,9 30
20.06.2018 16:00:00 34,0 10,1 8 4 WNW 1014,4 -
20.06.2018 15:00:00 32,5 10,0 8 4 W 1015,3 -
20.06.2018 14:00:00 31,4 11,4 16 9 WSW 1015,7 30
20.06.2018 13:00:00 29,2 11,7 21 11 SW 1016,3 -
20.06.2018 12:00:00 30,6 9,1 18 10 E 1016,1 -
20.06.2018 11:00:00 28,4 10,2 18 10 ENE 1015,6 30
20.06.2018 10:00:00 25,5 11,9 13 7 NE 1016,6 -
20.06.2018 09:00:00 23,3 12,4 9 5 NE 1017,0 -
20.06.2018 08:00:00 20,6 13,3 5 3 NNE 1016,7 30
20.06.2018 07:00:00 19,9 12,9 9 5 NNE 1016,1 -
20.06.2018 06:00:00 20,4 13,0 11 6 NNE 1015,9 -
20.06.2018 05:00:00 21,2 12,3 13 7 N 1015,6 30
20.06.2018 04:00:00 21,8 12,4 11 6 WNW 1015,7 -
20.06.2018 03:00:00 22,5 14,1 4 2 NW 1015,8 -
20.06.2018 02:00:00 23,5 14,5 2 1 S 1015,9 -
20.06.2018 01:00:00 25,3 14,6 0 0 N 1015,7 -
20.06.2018 00:00:00 26,2 14,0 8 4 NNW 1015,7 -
19.06.2018 23:00:00 27,8 13,0 13 7 W 1015,5 30
19.06.2018 22:00:00 30,0 12,0 9 5 SW 1014,5 -
19.06.2018 21:00:00 32,3 12,5 22 12 SW 1014,1 -
19.06.2018 20:00:00 35,9 9,6 9 5 WNW 1013,5 30
19.06.2018 19:00:00 36,3 9,8 8 4 S 1013,5 -
19.06.2018 18:00:00 36,4 10,2 8 4 SW 1014,0 -
19.06.2018 17:00:00 36,0 10,2 9 5 WNW 1014,6 30
19.06.2018 16:00:00 35,5 10,3 8 4 S 1015,1 -
19.06.2018 15:00:00 34,6 9,8 9 5 SW 1015,8 -
19.06.2018 14:00:00 33,4 9,4 8 4 SE 1016,5 30
19.06.2018 13:00:00 31,6 9,2 8 4 NW 1017,1 -
19.06.2018 12:00:00 30,7 9,4 9 5 ESE 1017,3 -
19.06.2018 11:00:00 28,2 11,8 9 5 NE 1017,8 30
19.06.2018 10:00:00 25,7 13,5 11 6 NE 1018,2 -
19.06.2018 09:00:00 23,0 14,0 5 3 NE 1018,1 -
19.06.2018 08:00:00 21,0 15,1 0 0 N 1018,0 30
19.06.2018 07:00:00 20,0 14,6 5 3 N 1017,8 -
19.06.2018 06:00:00 20,7 13,9 2 1 N 1017,6 -
19.06.2018 05:00:00 21,1 14,1 0 0 N 1017,5 30
19.06.2018 04:00:00 21,7 14,1 0 0 N 1017,3 -
19.06.2018 03:00:00 22,7 14,1 5 3 SSW 1017,3 -
19.06.2018 02:00:00 23,1 13,8 9 5 W 1017,6 30
19.06.2018 01:00:00 23,4 14,4 15 8 W 1017,5 -
19.06.2018 00:00:00 24,1 15,0 18 10 W 1017,4 -
18.06.2018 23:00:00 24,8 15,1 18 10 W 1016,9 30
18.06.2018 22:00:00 26,2 15,0 22 12 W 1016,2 -
18.06.2018 21:00:00 28,4 14,6 22 12 WSW 1015,4 -
18.06.2018 20:00:00 30,9 13,7 26 14 SW 1014,8 30
18.06.2018 19:00:00 34,9 13,1 28 15 SW 1014,0 -
18.06.2018 18:00:00 36,9 15,3 18 10 SSW 1013,7 -
18.06.2018 17:00:00 38,6 9,2 16 9 NE 1013,9 30
18.06.2018 16:00:00 38,2 9,3 11 6 E 1014,6 -
18.06.2018 15:00:00 37,2 10,3 15 8 E 1015,2 -
18.06.2018 14:00:00 35,9 10,0 15 8 ENE 1015,8 30
18.06.2018 13:00:00 34,4 9,7 16 9 E 1016,3 -
18.06.2018 12:00:00 32,8 9,7 16 9 ENE 1016,8 -
18.06.2018 11:00:00 28,9 11,7 13 7 NE 1017,4 30
18.06.2018 10:00:00 26,8 13,1 15 8 NNE 1017,5 -
18.06.2018 09:00:00 24,4 13,7 8 4 NE 1017,5 -
18.06.2018 08:00:00 21,6 13,5 0 0 N 1017,1 30
18.06.2018 07:00:00 20,4 12,9 8 4 E 1017,3 -
18.06.2018 06:00:00 21,0 12,7 5 3 ESE 1017,1 -
18.06.2018 05:00:00 22,4 12,5 2 1 SSE 1016,8 30
18.06.2018 04:00:00 23,5 11,7 0 0 N 1016,6 -
18.06.2018 03:00:00 25,1 10,9 16 9 SW 1016,8 -
18.06.2018 02:00:00 25,8 11,5 15 8 SSW 1016,5 30
18.06.2018 01:00:00 27,0 11,4 15 8 SSW 1016,7 -
18.06.2018 00:00:00 26,9 12,5 0 0 N 1016,6 -
17.06.2018 23:00:00 29,3 12,3 13 7 SSW 1016,7 30
17.06.2018 22:00:00 30,8 14,4 18 10 SW 1015,7 -
17.06.2018 21:00:00 34,3 14,2 18 10 SW 1015,1 -
17.06.2018 20:00:00 37,9 10,3 2 1 WNW 1014,8 30
17.06.2018 19:00:00 37,6 10,8 8 4 SW 1015,0 -
17.06.2018 18:00:00 37,6 10,6 11 6 W 1015,4 -
17.06.2018 17:00:00 36,9 11,2 8 4 WNW 1015,5 30
17.06.2018 16:00:00 35,5 11,7 8 4 N 1016,0 -
17.06.2018 15:00:00 33,9 11,1 8 4 SSW 1016,5 -
17.06.2018 14:00:00 32,7 11,1 8 4 W 1016,8 30
17.06.2018 13:00:00 31,1 11,6 4 2 WNW 1017,0 -
17.06.2018 12:00:00 28,9 11,1 4 2 NNE 1017,2 -
17.06.2018 11:00:00 26,8 11,8 4 2 NNE 1017,3 30
17.06.2018 10:00:00 25,1 12,1 0 0 N 1017,2 -
17.06.2018 09:00:00 23,8 14,2 0 0 N 1017,0 -
17.06.2018 08:00:00 20,1 14,3 0 0 N 1016,5 30
17.06.2018 07:00:00 19,0 13,8 8 4 SSE 1016,1 -
17.06.2018 06:00:00 19,5 14,1 5 3 S 1015,5 -
17.06.2018 05:00:00 20,3 14,4 8 4 S 1015,3 30
17.06.2018 04:00:00 21,0 14,2 9 5 S 1015,0 -
17.06.2018 03:00:00 22,2 12,7 13 7 S 1014,7 -
17.06.2018 02:00:00 23,3 12,6 8 4 SSW 1014,5 30
17.06.2018 01:00:00 23,9 11,9 13 7 W 1014,5 -
17.06.2018 00:00:00 25,2 12,4 15 8 WNW 1014,3 -
16.06.2018 23:00:00 27,0 12,0 9 5 SW 1013,8 30
16.06.2018 22:00:00 28,3 12,6 15 8 SSW 1012,8 -
16.06.2018 21:00:00 30,8 11,2 16 9 SW 1012,2 -
16.06.2018 20:00:00 32,6 12,3 24 13 SW 1011,7 30
16.06.2018 19:00:00 34,4 12,1 22 12 SW 1011,6 -
16.06.2018 18:00:00 35,1 12,4 16 9 SW 1011,7 -
16.06.2018 17:00:00 34,8 13,6 16 9 SW 1011,8 30
16.06.2018 16:00:00 34,2 11,7 13 7 WSW 1012,2 -
16.06.2018 15:00:00 32,4 12,7 16 9 WSW 1012,7 -

tt = temperature
td = dewpoint
ff = wind speed
dd = wind direction
ppp = reduced air pressure
vv = visibility

Next stations